User: anonymous   Login
Location: Solon
(41.3849°N, 81.4081°W)
Time: 14:02:34
(UTC-05:00)
Language:

CZ-2C R/B - Orbit

View from above orbital plane
View from above orbital plane
View from above satellite
View from above satellite

Ground track
Ground track

The orbit data is extracted from the following two-line orbital elements,

1 28480U 04046B   14325.46892556  .00000296  00000-0  12743-3 0  4910
2 28480 098.1106 109.5302 0143657 116.6654 285.8968 14.25389658520491
Epoch (UTC): 21 November 2014 11:15:15
Eccentricity: 0.0143657
inclination: 98.1106°
perigee height: 704 km
apogee height: 910 km
right ascension of ascending node: 109.5302°
argument of perigee: 116.6654°
revolutions per day: 14.25389658
mean anomaly at epoch: 285.8968°
orbit number at epoch: 52049

The dashed part of the orbit path shows where the satellite is in the earth's shadow,  

DLR